Location: *
(37.5724°S, 58.0067°E)
Time: 23:05:33
(UTC+00:00)

Cosmos 1943 Rocket - Pass Details

Date: 22 January 2021
Orbit: 810 x 845 km, 71.0° (Epoch: 25 February)

Event Time Altitude Azimuth Distance (km) Brightness Sun altitude
Rises 15:45:49 0° 210° (SSW) 3,370 6.5 -4.0°
Reaches altitude 10° 15:48:21 10° 215° (SW) 2,428 5.8 -4.5°
Maximum altitude 15:53:35 44° 286° (WNW) 1,115 3.3 -5.4°
Drops below altitude 10° 15:58:46 10° 357° (N) 2,396 4.3 -6.3°
Sets 16:01:15 0° 3° (N) 3,321 5.0 -6.7°
